| time (UTC) | temp F | wind direction | speed knots | gust knots | rain 1hr in | rain 24hr in | rain mn in | humidity % | barometer mb |
| 20260509150015 | 44 | 180 | 0.0 | 6.1 | 0.00 | 0.00 | 0.00 | 100 | 998.9 |
| 20260509144512 | 44 | 230 | 0.0 | 4.3 | 0.00 | 0.00 | 0.00 | 100 | 998.5 |
| 20260509143102 | 44 | 232 | 0.0 | 4.3 | 0.00 | 0.00 | 0.00 | 100 | 998.3 |
| 20260509141556 | 44 | 239 | 0.0 | 6.1 | 0.00 | 0.00 | 0.00 | 100 | 998.2 |
| 20260509140105 | 44 | 211 | 0.9 | 10.4 | 0.00 | 0.00 | 0.00 | 100 | 998.3 |
| 20260509134551 | 45 | 252 | 0.9 | 8.7 | 0.00 | 0.00 | 0.00 | 100 | 997.7 |
| 20260509133042 | 45 | 196 | 1.7 | 6.1 | 0.00 | 0.00 | 0.00 | 100 | 997.7 |
| 20260509131549 | 45 | 261 | 1.7 | 4.3 | 0.00 | 0.00 | 0.00 | 100 | 997.8 |
| 20260509130024 | 46 | 159 | 0.0 | 7.8 | 0.00 | 0.00 | 0.00 | 100 | 997.8 |
| 20260509124521 | 45 | 209 | 0.0 | 3.5 | 0.00 | 0.00 | 0.00 | 100 | 997.7 |
| 20260509123051 | 45 | 198 | 0.0 | 4.3 | 0.00 | 0.00 | 0.00 | 100 | 997.9 |
| 20260509121558 | 46 | 219 | 0.0 | 10.4 | 0.00 | 0.00 | 0.00 | 7 | 998.3 |
| 20260509120035 | 48 | 136 | 0.0 | 1.7 | 0.00 | 0.00 | 0.00 | 34 | 997.6 |
| 20260509114532 | 48 | 189 | 0.0 | 4.3 | 0.00 | 0.00 | 0.00 | 35 | 997.5 |
| 20260509113024 | 48 | 113 | 0.0 | 4.3 | 0.00 | 0.00 | 0.00 | 39 | 997.5 |
| 20260509111521 | 47 | 122 | 0.0 | 4.3 | 0.00 | 0.00 | 0.00 | 42 | 997.7 |
| 20260509110016 | 47 | 237 | 0.0 | 2.6 | 0.00 | 0.00 | 0.00 | 46 | 997.5 |
| 20260509104511 | 47 | 214 | 0.0 | 4.3 | 0.00 | 0.00 | 0.00 | 50 | 997.5 |
| 20260509103006 | 48 | 166 | 0.0 | 7.0 | 0.00 | 0.00 | 0.00 | 53 | 997.5 |
| 20260509101502 | 49 | 192 | 0.0 | 3.5 | 0.00 | 0.00 | 0.00 | 53 | 997.8 |
| 20260509100100 | 50 | 234 | 0.0 | 5.2 | 0.00 | 0.00 | 0.00 | 53 | 998.0 |
| 20260509094537 | 51 | 132 | 0.0 | 7.8 | 0.00 | 0.00 | 0.00 | 52 | 998.1 |
| 20260509093033 | 50 | 196 | 0.0 | 6.1 | 0.00 | 0.00 | 0.00 | 52 | 998.3 |
| 20260509091515 | 49 | 105 | 0.0 | 4.3 | 0.00 | 0.00 | 0.00 | 52 | 998.4 |
| 20260509090013 | 49 | 235 | 0.0 | 6.1 | 0.00 | 0.00 | 0.00 | 53 | 998.7 |
| 20260509084513 | 49 | 150 | 1.7 | 10.4 | 0.00 | 0.00 | 0.00 | 54 | 999.0 |
| 20260509083002 | 49 | 115 | 0.0 | 7.8 | 0.00 | 0.00 | 0.00 | 52 | 999.1 |
| 20260509081558 | 49 | 191 | 0.0 | 7.8 | 0.00 | 0.00 | 0.00 | 53 | 999.4 |
| 20260509080100 | 49 | 73 | 0.0 | 7.0 | 0.00 | 0.00 | 0.00 | 52 | 999.4 |
| 20260509074550 | 48 | 80 | 0.0 | 7.8 | 0.00 | 0.00 | 0.00 | 51 | 999.5 |
| 20260509073048 | 48 | 109 | 0.0 | 8.7 | 0.00 | 0.00 | 0.00 | 51 | 999.8 |
| 20260509071524 | 46 | 107 | 0.0 | 1.7 | 0.00 | 0.00 | 0.00 | 52 | 999.9 |
| 20260509070019 | 44 | 140 | 0.0 | 4.3 | 0.00 | 0.00 | 0.00 | 51 | 1000.2 |
| 20260509064557 | 43 | 32 | 0.0 | 1.7 | 0.00 | 0.00 | 0.00 | 50 | 1000.7 |
| 20260509063102 | 43 | 61 | 0.0 | 0.0 | 0.00 | 0.00 | 0.00 | 48 | 1000.9 |
| 20260509061539 | 43 | 70 | 0.0 | 0.9 | 0.00 | 0.00 | 0.00 | 50 | 1001.2 |
| 20260509060028 | 43 | 79 | 0.0 | 0.0 | 0.00 | 0.00 | 0.00 | 50 | 1001.5 |
| 20260509054505 | 43 | 94 | 0.0 | 0.0 | 0.00 | 0.00 | 0.00 | 52 | 1001.7 |
| 20260509053002 | 44 | 225 | 0.0 | 0.0 | 0.00 | 0.00 | 0.00 | 53 | 1001.9 |
| 20260509051545 | 44 | 225 | 0.0 | 0.0 | 0.00 | 0.00 | 0.00 | 53 | 1002.2 |
| 20260509050041 | 45 | 223 | 0.0 | 0.0 | 0.00 | 0.00 | 0.00 | 54 | 1002.3 |
| 20260509044536 | 45 | 225 | 0.0 | 0.0 | 0.00 | 0.00 | 0.00 | 54 | 1002.5 |
| 20260509043032 | 45 | 162 | 0.0 | 1.7 | 0.00 | 0.00 | 0.00 | 54 | 1002.8 |
| 20260509041536 | 45 | 123 | 0.0 | 0.0 | 0.00 | 0.00 | 0.00 | 54 | 1003.0 |
| 20260509040023 | 45 | 271 | 0.0 | 0.0 | 0.00 | 0.00 | 0.00 | 54 | 1003.3 |
| 20260509034518 | 45 | 16 | 0.0 | 1.7 | 0.00 | 0.00 | 0.00 | 54 | 1003.4 |
| 20260509033014 | 45 | 130 | 0.0 | 0.9 | 0.00 | 0.00 | 0.00 | 54 | 1003.7 |
| 20260509031606 | 46 | 105 | 0.0 | 0.9 | 0.00 | 0.00 | 0.00 | 55 | 1004.0 |
| 20260509030054 | 46 | 106 | 0.0 | 0.9 | 0.00 | 0.00 | 0.00 | 55 | 1004.3 |
| 20260509024549 | 46 | 78 | 0.0 | 0.0 | 0.00 | 0.00 | 0.00 | 55 | 1004.4 |
| 20260509023048 | 46 | 72 | 0.0 | 0.0 | 0.00 | 0.00 | 0.00 | 55 | 1004.4 |
| 20260509021541 | 47 | 132 | 0.0 | 0.0 | 0.00 | 0.00 | 0.00 | 54 | 1004.5 |
| 20260509020045 | 47 | 101 | 0.0 | 0.9 | 0.00 | 0.00 | 0.00 | 53 | 1004.5 |
| 20260509014532 | 48 | 144 | 0.0 | 0.0 | 0.00 | 0.00 | 0.00 | 52 | 1004.5 |
| 20260509013029 | 47 | 132 | 0.0 | 4.3 | 0.00 | 0.00 | 0.00 | 51 | 1004.4 |
| 20260509011506 | 48 | 173 | 0.0 | 0.0 | 0.00 | 0.00 | 0.00 | 53 | 1004.4 |
| 20260509010001 | 48 | 113 | 0.0 | 0.9 | 0.00 | 0.00 | 0.00 | 51 | 1004.4 |
| 20260509004542 | 49 | 222 | 0.0 | 0.0 | 0.00 | 0.00 | 0.00 | 51 | 1004.5 |
| 20260509003038 | 49 | 222 | 0.0 | 0.0 | 0.00 | 0.00 | 0.00 | 53 | 1004.7 |
| 20260509001533 | 49 | 265 | 0.0 | 0.0 | 0.00 | 0.00 | 0.00 | 52 | 1004.7 |
| 20260509000029 | 50 | 252 | 0.0 | 2.6 | 0.00 | 0.00 | 0.00 | 52 | 1004.7 |
| 20260508234526 | 49 | 178 | 0.0 | 2.6 | 0.00 | 0.00 | 0.00 | 53 | 1004.8 |
| 20260508233021 | 49 | 313 | 0.0 | 0.0 | 0.00 | 0.00 | 0.00 | 53 | 1005.0 |
| 20260508231515 | 49 | 313 | 0.0 | 0.0 | 0.00 | 0.00 | 0.00 | 53 | 1005.3 |
| 20260508230016 | 50 | 313 | 0.0 | 0.9 | 0.00 | 0.00 | 0.00 | 52 | 1005.4 |
| 20260508224506 | 51 | 263 | 0.0 | 4.3 | 0.00 | 0.00 | 0.00 | 52 | 1005.6 |
| 20260508223003 | 52 | 248 | 0.0 | 4.3 | 0.00 | 0.00 | 0.00 | 51 | 1005.9 |
| 20260508221520 | 52 | 225 | 0.9 | 6.1 | 0.00 | 0.00 | 0.00 | 49 | 1005.8 |
| 20260508220004 | 53 | 233 | 0.9 | 6.1 | 0.00 | 0.00 | 0.00 | 50 | 1005.9 |
| 20260508214503 | 55 | 239 | 0.9 | 5.2 | 0.00 | 0.00 | 0.00 | 48 | 1006.0 |
| 20260508213056 | 54 | 249 | 0.0 | 6.1 | 0.00 | 0.00 | 0.00 | 49 | 1006.0 |
| 20260508211505 | 54 | 220 | 0.9 | 5.2 | 0.00 | 0.00 | 0.00 | 49 | 1006.0 |
| 20260508210108 | 54 | 244 | 1.7 | 6.1 | 0.00 | 0.00 | 0.00 | 47 | 1006.2 |
| 20260508204556 | 50 | 257 | 0.9 | 8.7 | 0.00 | 0.00 | 0.00 | 46 | 1006.4 |
| 20260508203051 | 49 | 259 | 1.7 | 5.2 | 0.00 | 0.00 | 0.00 | 9 | 1006.6 |
| 20260508201535 | 50 | 228 | 1.7 | 7.0 | 0.00 | 0.00 | 0.00 | 13 | 1006.8 |
| 20260508200036 | 49 | 257 | 0.9 | 5.2 | 0.00 | 0.00 | 0.00 | 18 | 1007.0 |
| 20260508194526 | 48 | 250 | 0.9 | 6.1 | 0.00 | 0.00 | 0.00 | 20 | 1007.3 |
| 20260508193022 | 47 | 253 | 0.9 | 6.1 | 0.00 | 0.00 | 0.00 | 13 | 1007.6 |
| 20260508191519 | 46 | 246 | 1.7 | 5.2 | 0.00 | 0.00 | 0.00 | 4 | 1007.8 |
| 20260508190013 | 45 | 256 | 2.6 | 7.0 | 0.00 | 0.00 | 0.00 | 8 | 1007.9 |
| 20260508184509 | 46 | 253 | 2.6 | 7.8 | 0.00 | 0.00 | 0.00 | 13 | 1008.0 |
| 20260508183004 | 45 | 229 | 2.6 | 7.8 | 0.00 | 0.00 | 0.00 | 12 | 1008.2 |
| 20260508181548 | 45 | 197 | 4.3 | 10.4 | 0.00 | 0.00 | 0.00 | 13 | 1008.4 |
| 20260508180044 | 45 | 229 | 2.6 | 7.8 | 0.00 | 0.00 | 0.00 | 12 | 1008.4 |
| 20260508174541 | 46 | 218 | 2.6 | 7.8 | 0.00 | 0.00 | 0.00 | 17 | 1008.5 |
| 20260508173035 | 47 | 246 | 2.6 | 7.0 | 0.00 | 0.00 | 0.00 | 21 | 1008.4 |
| 20260508171533 | 46 | 257 | 2.6 | 7.0 | 0.00 | 0.00 | 0.00 | 30 | 1008.6 |
| 20260508170026 | 46 | 246 | 1.7 | 7.8 | 0.00 | 0.00 | 0.00 | 26 | 1008.7 |
| 20260508164527 | 45 | 234 | 2.6 | 7.8 | 0.00 | 0.00 | 0.00 | 30 | 1008.8 |
| 20260508163019 | 45 | 251 | 2.6 | 7.0 | 0.00 | 0.00 | 0.00 | 33 | 1008.9 |
| 20260508161503 | 45 | 235 | 2.6 | 8.7 | 0.00 | 0.00 | 0.00 | 32 | 1009.0 |
| 20260508160059 | 46 | 236 | 1.7 | 7.8 | 0.00 | 0.00 | 0.00 | 27 | 1009.1 |
| 20260508154554 | 45 | 261 | 1.7 | 7.8 | 0.00 | 0.00 | 0.00 | 28 | 1009.1 |
| 20260508153049 | 45 | 248 | 1.7 | 7.8 | 0.00 | 0.00 | 0.00 | 29 | 1009.3 |
| 20260508151545 | 45 | 250 | 1.7 | 7.8 | 0.00 | 0.00 | 0.00 | 31 | 1009.3 |